Wind_Speed
13 10 4 2 9 17 20 21 20 18 16 11 11 13 11 9 10 14 16 13 10 7 6 8 9 8 7 6 6 7 7 8 8 7 6 4 4 5 5 5 5 6 7 6 6 6 6 5 5 5 5 4 3 4 4 4 4 4 4 6 7 8 9 9 9 8 8 8 9 9 10 10 11 12 13 13 14 15 15 14 13 12 11 10 9
13 10 5 4 6 14 15 17 17 14 12 10 8 7 8 9 11 12 12 10 7 5 6 8 8 6 5 5 6 6 7 8 8 6 5 4 4 5 5 5 6 7 6 6 5 5 4 5 4 4 3 3 3 3 3 3 4 4 4 4 5 5 6 6 6 7 7 7 7 8 9 10 11 12 13 13 13 13 13 13 12 11 10 10 9
4 5 5 3 5 11 12 15 16 13 10 9 8 8 9 10 11 11 9 7 5 4 6 7 6 4 4 5 6 6 6 6 6 5 5 5 5 5 5 5 6 7 6 5 4 3 3 4 3 2 2 3 3 3 3 4 4 5 5 4 4 4 4 5 5 6 6 7 7 8 9 10 11 12 13 13 12 13 13 13 12 11 10 10 10
2 6 7 4 4 7 10 11 10 7 6 8 9 9 10 11 11 9 7 5 4 4 6 7 6 4 4 4 5 5 5 5 5 5 5 5 5 5 6 5 6 6 4 4 4 3 2 2 2 2 2 3 4 4 5 5 6 6 5 5 4 4 4 5 6 6 7 7 7 8 8 9 10 11 12 13 13 13 13 14 13 12 11 11 11
2 5 8 8 6 8 12 11 9 8 7 9 10 9 10 11 10 7 4 4 4 5 6 5 4 4 4 4 5 5 5 6 6 5 5 4 4 5 6 5 5 4 4 4 3 2 2 1 1 2 2 3 4 5 6 6 6 6 5 5 5 5 5 6 7 8 8 8 8 8 8 8 9 10 11 13 14 14 14 15 14 13 13 12 11
4 6 8 9 11 11 11 9 9 9 8 8 9 9 11 10 8 5 3 4 4 5 6 4 3 4 4 5 5 6 6 7 6 5 4 3 4 5 6 5 4 4 4 4 2 2 1 1 2 2 3 3 4 5 6 6 7 6 6 6 6 6 6 7 8 8 9 9 9 9 10 9 9 10 10 11 13 14 15 15 15 14 13 12 11
8 8 7 7 10 11 9 8 8 10 9 9 9 10 10 8 4 2 2 3 3 4 5 3 3 4 4 6 6 6 6 6 5 5 5 4 4 5 6 5 4 4 4 3 1 1 1 2 2 2 2 3 4 5 5 6 7 7 6 7 7 8 8 9 9 10 10 11 10 10 10 10 11 11 11 12 13 15 16 16 15 13 12 12 12
11 10 9 8 8 7 7 8 9 9 9 9 8 8 7 4 1 1 3 3 3 4 3 3 3 4 4 6 6 5 4 3 3 4 5 6 6 6 7 5 4 4 3 2 1 1 2 2 2 2 2 3 4 5 5 6 7 7 6 7 8 9 10 10 10 11 11 12 12 11 11 11 11 12 12 13 14 15 16 15 15 14 12 11 11
13 11 10 10 10 8 8 9 10 8 8 8 6 5 3 1 2 3 3 3 3 3 3 3 4 4 4 4 4 4 4 3 3 4 4 6 6 6 6 5 4 3 2 1 1 1 2 3 3 3 3 3 4 5 6 6 6 6 6 7 8 9 10 10 11 11 11 12 12 12 12 11 12 12 13 13 13 14 14 14 15 15 15 14 13
13 12 11 10 10 10 8 8 8 7 7 5 4 3 1 2 3 4 4 3 3 3 3 3 3 3 3 3 3 4 4 4 5 5 5 5 5 5 5 4 3 2 1 1 1 1 2 2 2 2 3 3 4 4 5 5 5 5 6 7 8 9 10 10 11 11 11 10 11 12 12 12 11 12 13 14 13 12 12 13 13 14 13 14 13
11 11 10 9 9 8 7 7 8 7 6 4 3 2 2 3 3 3 3 3 3 2 2 2 3 2 2 3 4 5 6 6 6 5 4 4 4 4 4 4 4 2 1 1 1 1 1 1 0 1 2 3 4 4 3 3 3 4 6 7 8 9 10 10 11 11 11 11 10 10 11 11 11 11 12 14 13 12 11 11 12 12 12 11 11
9 8 8 7 7 6 6 7 7 6 4 3 3 3 4 4 4 3 3 3 2 2 2 3 3 3 3 4 6 7 8 7 6 6 5 4 4 4 4 4 4 3 2 1 1 1 2 2 2 2 2 4 5 4 4 3 3 4 5 6 7 8 9 10 10 11 11 11 11 10 10 11 11 11 12 13 14 14 13 12 12 13 13 12 12
8 6 6 6 6 6 6 6 5 3 3 4 5 5 6 6 5 3 2 2 1 2 3 4 4 5 5 6 7 8 8 7 7 7 7 7 6 5 4 4 4 3 3 1 1 1 1 2 3 4 4 4 5 6 6 6 6 6 7 8 8 8 9 10 10 10 10 11 11 12 11 11 12 12 12 12 13 13 14 14 14 14 14 14 14
7 6 6 6 6 6 6 5 3 2 3 5 5 6 7 6 4 2 2 2 3 4 4 5 5 5 6 7 8 9 9 9 9 9 9 8 7 6 5 5 4 4 4 3 2 2 3 3 4 5 5 5 5 6 7 7 8 9 10 11 12 12 11 11 12 12 12 11 11 12 12 12 12 13 13 13 13 13 14 15 15 14 15 15 16
6 5 6 6 7 6 5 3 1 2 3 5 5 5 4 3 2 2 3 4 5 5 5 6 6 6 7 8 10 11 11 12 11 10 9 9 8 7 6 5 5 5 4 4 4 4 4 5 6 6 6 6 6 6 7 8 9 10 11 12 14 14 14 14 13 14 14 13 13 13 13 13 13 13 14 14 14 14 14 15 16 16 15 15 16
5 5 7 7 7 6 4 2 2 4 6 6 5 3 2 2 2 3 4 5 6 6 6 6 7 7 7 8 10 12 13 13 11 10 9 9 8 7 6 6 5 5 4 5 5 4 5 5 6 7 7 6 6 7 7 7 8 10 10 11 13 14 15 15 14 14 14 14 14 14 14 15 15 15 15 15 15 14 14 15 17 17 16 15 16
5 6 7 8 7 6 4 3 5 7 8 7 5 3 1 1 3 4 5 6 6 6 6 6 6 7 7 8 9 11 12 11 10 10 9 9 9 8 7 6 5 5 5 5 5 5 5 5 6 6 6 6 6 6 7 7 7 8 9 9 10 12 14 15 15 15 15 14 15 15 15 16 16 16 17 17 17 16 14 14 16 17 17 16 16
7 8 9 9 8 6 4 3 5 7 8 8 6 3 1 1 3 4 5 6 6 6 6 6 6 6 7 7 8 9 10 10 10 10 9 9 9 8 7 6 5 5 5 5 6 6 5 5 5 6 6 7 7 7 8 7 7 8 9 9 9 10 12 14 14 15 15 15 16 16 17 18 18 19 19 19 19 19 17 16 16 17 18 17 17
7 8 9 9 8 6 3 2 3 5 7 8 7 4 2 1 2 3 4 5 5 6 6 6 6 7 7 7 8 8 9 10 10 10 9 9 9 8 7 6 6 6 6 6 6 6 6 6 6 6 6 7 7 8 9 9 9 10 10 11 11 11 13 14 14 15 15 16 16 17 18 19 20 21 21 21 22 22 21 19 18 18 18 18 19
7 7 8 8 7 6 3 1 1 4 7 8 9 7 4 2 2 3 4 5 6 7 7 7 8 8 8 8 8 8 9 10 11 11 10 9 8 8 7 7 7 7 7 7 6 6 6 6 6 6 6 7 8 8 9 10 11 11 12 13 14 14 15 16 16 16 16 16 16 16 17 18 19 21 22 22 23 24 24 22 21 21 20 20 20
6 6 7 7 7 6 5 4 4 5 7 10 11 10 7 5 4 4 5 6 7 8 8 9 9 9 9 8 8 8 9 11 12 12 11 10 9 8 7 7 8 8 8 8 7 7 7 7 7 8 8 8 9 9 10 11 12 13 14 15 16 17 17 17 17 18 18 17 17 16 17 18 19 20 22 23 25 26 26 25 24 23 23 22 22
6 6 6 7 8 7 6 6 6 7 9 11 11 11 10 7 6 6 6 7 8 9 9 9 10 10 10 9 8 8 9 11 13 13 12 11 9 8 7 7 8 8 8 8 8 8 8 9 9 10 10 10 10 11 12 13 14 15 16 17 18 19 19 18 18 18 18 18 17 17 17 18 19 20 22 24 25 26 26 26 26 25 25 24 24
6 6 7 9 9 9 9 8 8 9 10 11 12 12 13 11 9 8 8 8 8 9 10 9 9 10 10 9 9 9 10 11 13 14 13 11 9 8 8 8 8 8 8 9 9 9 9 10 11 11 11 12 12 13 13 14 16 17 18 19 20 20 21 21 21 20 20 19 19 18 18 19 20 20 21 22 24 25 26 26 27 27 26 25 25
7 7 9 10 11 11 10 10 10 10 10 10 11 13 14 13 11 10 9 9 9 9 9 9 9 9 9 9 9 10 11 12 14 14 13 11 9 8 8 8 9 9 9 9 10 10 11 11 12 12 12 13 13 13 14 15 17 18 19 20 22 23 23 24 24 24 23 22 22 22 21 22 23 23 23 23 24 24 25 26 27 28 28 27 26
7 8 10 11 12 12 11 11 11 10 9 9 11 13 14 13 12 10 10 10 9 9 9 10 10 10 10 9 10 11 11 12 14 14 12 10 8 8 9 10 10 10 9 9 10 11 11 12 12 13 13 13 14 14 15 16 18 19 21 22 24 25 26 26 27 27 27 27 27 26 25 25 25 24 25 25 25 25 26 27 28 29 30 30 29
8 9 11 12 12 12 12 11 10 9 9 10 11 13 13 12 11 9 9 9 9 9 9 9 10 10 10 10 10 10 11 12 13 12 10 9 9 10 11 11 11 10 10 10 11 11 11 12 12 13 14 14 15 16 17 18 19 21 23 25 26 27 28 29 30 30 31 31 30 28 26 25 24 24 24 24 25 25 26 28 28 28 30 32 31
8 9 12 13 13 13 12 11 11 10 10 11 12 13 13 11 10 8 8 9 9 8 9 9 9 10 11 11 11 10 11 12 12 11 11 11 11 12 12 11 11 11 11 11 11 11 11 12 13 14 15 16 17 18 19 20 21 23 24 26 27 29 30 31 32 32 32 31 30 27 25 24 24 24 24 25 25 25 26 28 27 27 28 30 31
9 10 12 13 14 14 13 12 11 10 10 12 13 14 14 12 9 8 8 8 9 8 8 9 9 10 11 11 11 10 11 12 12 13 13 13 13 13 12 11 11 11 11 11 11 11 11 13 14 15 16 17 18 19 20 22 23 24 25 26 27 28 29 30 30 29 29 28 26 25 24 25 25 26 27 27 27 26 27 28 28 28 28 30 30
10 11 12 14 14 14 12 11 10 9 11 13 15 17 16 13 10 8 8 8 9 9 9 9 9 9 9 9 9 9 11 13 15 15 14 14 13 13 12 12 11 11 11 11 11 11 13 14 15 15 16 17 18 19 21 23 23 24 25 26 27 28 28 28 27 26 26 25 25 25 26 27 28 29 30 29 28 28 29 30 30 30 30 31 31
11 11 12 14 14 13 12 11 11 11 13 15 17 19 18 14 10 9 9 9 9 9 9 9 9 8 8 8 8 10 13 15 15 15 14 13 13 13 12 11 10 11 12 12 13 13 14 15 15 16 17 18 19 21 22 23 24 24 25 26 27 27 27 27 26 25 25 25 26 28 29 31 32 32 31 30 28 28 29 30 30 31 31 31 31
11 11 12 13 13 13 13 12 13 15 15 16 17 19 17 13 10 9 9 9 9 9 9 9 9 8 8 8 9 10 12 14 14 14 13 13 13 12 11 11 11 12 13 13 14 14 15 15 15 16 18 19 21 22 23 24 25 26 26 26 26 27 27 27 27 27 27 28 29 31 32 33 33 32 31 30 29 28 29 30 30 31 30 30 29
12 12 13 13 14 14 13 14 16 17 16 16 18 18 15 11 10 9 9 9 9 9 9 9 8 8 9 9 10 11 13 14 14 14 13 13 13 12 11 11 12 13 14 14 14 15 16 16 16 17 19 21 22 23 24 24 25 26 27 27 28 29 29 29 29 29 30 30 31 32 33 33 33 32 31 32 31 31 31 31 32 32 31 30 29
12 13 14 14 14 14 13 14 16 17 16 18 20 19 15 12 10 9 9 9 9 9 9 9 9 9 10 11 11 12 13 14 14 13 13 13 13 12 11 12 13 14 15 15 16 15 16 17 18 19 21 23 23 24 24 24 25 27 29 30 32 33 34 34 34 33 32 32 32 33 33 32 32 32 32 33 33 32 32 31 32 32 31 31 29
14 14 14 15 15 14 14 15 18 19 20 20 21 19 16 13 12 11 10 9 9 9 10 10 10 11 11 11 11 11 12 12 13 13 13 13 12 12 12 13 14 15 15 16 17 17 17 18 20 22 24 24 24 24 24 25 27 29 31 34 36 38 39 40 39 37 36 35 34 33 33 33 33 34 34 34 34 33 31 30 30 30 30 30 29
14 14 14 14 14 15 16 17 18 18 18 18 18 18 17 14 13 13 12 11 10 11 11 11 11 10 10 10 10 10 11 12 12 13 13 13 13 14 14 14 14 16 17 17 18 19 19 21 23 25 25 25 25 25 26 28 30 33 35 37 39 40 41 40 39 38 37 37 36 35 35 35 35 35 35 35 35 34 32 31 30 29 29 29 29
13 14 14 13 14 15 17 17 16 15 16 18 19 19 17 15 14 14 13 13 12 12 12 11 11 11 10 10 10 11 12 13 13 13 13 14 15 15 15 15 16 17 17 18 19 20 22 23 25 26 26 25 26 27 29 32 34 36 38 40 41 41 40 39 38 38 37 37 36 36 36 36 36 36 36 36 35 35 34 32 31 30 29 30 29
14 15 15 14 14 16 18 19 18 17 17 19 21 20 18 16 16 15 14 14 14 13 13 12 12 12 11 11 12 13 13 14 14 14 14 15 16 16 16 16 17 17 18 19 20 22 23 25 26 27 27 28 29 30 32 34 37 39 40 42 42 41 40 39 39 38 37 36 36 36 36 36 36 36 36 36 35 34 33 32 31 30 30 30 30
17 17 17 16 16 16 18 20 20 19 18 20 22 22 19 17 16 15 14 14 15 14 14 14 13 12 11 12 14 15 15 15 15 15 15 16 17 17 18 18 18 19 19 20 22 24 25 27 28 29 30 30 31 33 35 37 39 41 43 43 42 41 40 40 40 38 37 36 36 36 36 36 35 34 34 33 33 31 31 30 30 29 29 29 29
21 20 19 19 18 18 19 20 20 20 21 22 23 22 19 17 15 14 14 14 14 14 13 13 13 12 12 14 15 16 16 16 15 15 16 17 18 19 20 20 20 21 21 23 25 26 28 29 29 30 32 33 34 36 38 40 42 43 45 44 42 40 40 40 40 39 37 36 36 35 35 34 33 31 30 30 30 29 28 28 28 28 28 28 27
21 21 20 20 20 20 21 21 22 22 23 23 23 20 17 15 14 13 13 13 13 12 12 11 11 12 13 14 15 16 16 16 16 16 17 18 20 21 21 22 23 24 24 25 27 28 30 30 30 31 33 35 37 39 41 43 45 45 44 42 41 40 41 40 39 38 37 35 34 33 32 31 30 29 29 28 28 28 27 27 26 26 26 26 26
21 21 21 21 21 21 21 21 21 20 20 19 18 16 14 13 12 12 12 12 11 10 10 10 10 11 13 14 15 16 17 17 17 17 18 19 21 22 23 25 26 28 28 29 30 31 31 31 31 33 35 37 39 41 43 44 44 43 41 40 40 40 39 38 37 36 34 33 32 32 32 31 31 30 29 29 29 28 28 28 27 26 25 25 25
19 20 20 20 20 19 18 17 16 15 14 14 13 12 11 11 11 11 10 10 9 9 9 10 10 11 13 14 15 16 16 17 17 18 19 20 22 24 25 27 28 29 31 31 32 32 32 33 34 35 37 39 41 42 42 41 41 40 39 39 39 38 36 35 34 33 32 31 31 31 32 32 32 32 31 31 30 29 29 29 28 27 26 25 25
14 16 16 17 16 15 14 13 12 11 11 10 10 10 9 9 9 9 8 8 8 8 8 9 10 11 12 13 14 16 16 17 18 19 20 22 24 26 27 28 28 28 29 30 30 31 33 35 36 37 38 39 39 40 39 39 39 39 38 38 36 34 33 32 32 31 31 30 30 31 31 32 32 32 32 32 31 30 29 29 28 28 26 25 24
11 11 12 12 11 11 11 11 10 9 8 8 8 8 8 8 7 7 6 6 7 7 7 8 10 11 12 13 14 16 17 18 19 21 22 24 26 28 29 27 26 26 27 28 30 31 33 34 35 36 37 38 39 39 39 39 38 37 36 35 34 33 32 32 32 31 31 31 31 31 31 32 32 32 32 32 32 31 30 29 29 28 27 26 25
9 9 10 10 10 9 9 9 9 8 7 7 7 7 6 6 6 5 5 6 7 8 9 10 11 12 12 13 15 17 18 20 21 23 23 24 27 29 29 27 26 26 27 29 30 32 33 34 35 36 37 38 38 38 37 36 35 34 34 33 33 33 32 32 32 32 32 32 32 32 32 32 32 32 32 32 32 32 31 30 30 29 27 27 26
9 9 9 9 9 9 8 8 8 7 7 7 6 6 5 5 5 5 5 7 8 9 10 11 12 13 14 15 16 18 20 22 23 24 25 26 26 26 25 26 26 28 29 31 32 33 34 35 36 36 36 36 36 35 34 34 33 32 32 32 33 33 33 33 33 32 32 32 32 32 32 33 32 32 33 32 32 32 31 31 30 30 29 27 27
9 9 9 9 9 9 8 8 7 7 7 6 6 5 5 4 4 5 7 8 9 11 11 12 14 15 16 17 19 21 22 22 23 26 28 28 26 24 25 26 27 29 31 32 33 34 34 35 35 35 34 34 33 33 33 32 32 32 33 33 33 33 33 33 33 33 33 33 33 33 33 33 33 33 33 33 33 32 32 31 30 30 29 28 28
7 7 8 8 8 8 8 7 6 6 6 6 6 4 4 4 5 7 8 9 11 12 13 15 16 17 19 20 21 22 23 24 25 28 29 28 26 26 27 28 29 30 32 33 33 34 34 33 33 32 32 32 32 32 32 32 32 33 33 33 33 33 33 33 34 34 33 33 33 33 33 33 33 33 33 33 32 32 31 30 30 29 29 28 27
7 7 7 7 7 7 7 7 6 6 6 6 5 4 5 6 7 8 10 12 13 15 16 18 19 20 21 21 22 24 26 26 25 26 27 27 27 28 29 30 31 32 33 33 33 32 32 31 31 31 31 31 31 31 32 32 33 33 33 33 33 33 33 33 33 33 33 33 32 32 32 32 32 32 32 31 31 31 30 30 29 28 28 27 27
6 6 5 5 6 6 7 6 6 6 5 5 5 5 6 8 9 11 13 14 16 17 19 21 21 22 22 23 25 26 26 25 24 25 26 27 28 29 30 31 32 33 32 32 31 30 30 30 30 30 30 30 31 32 32 32 32 32 32 32 32 32 32 32 32 32 32 31 31 31 31 31 31 31 31 30 30 30 30 29 29 28 27 27 26
6 5 4 5 5 6 6 6 6 6 6 6 6 7 9 10 12 13 15 16 18 19 21 23 24 24 25 26 26 25 25 25 26 27 27 27 29 30 31 32 32 32 31 30 29 29 29 29 29 29 30 31 31 31 31 31 31 31 31 31 31 31 31 31 30 30 30 30 30 30 30 30 30 30 30 30 29 29 29 29 28 28 27 27 26
Wind_Direction
27 83 78 193 233 239 236 237 237 231 227 231 261 258 228 207 206 216 231 239 245 250 258 278 291 296 289 273 256 241 231 228 228 228 227 220 227 245 261 274 277 278 277 273 267 260 258 265 274 279 283 300 335 348 346 342 332 320 315 312 310 313 318 324 329 330 333 336 337 339 337 336 338 338 338 341 342 342 341 340 339 342 346 347 349
26 53 27 349 229 218 221 223 219 218 218 220 237 219 178 190 211 219 226 232 239 248 270 290 296 294 278 259 246 235 226 226 226 223 218 219 233 251 266 275 276 277 276 267 255 251 263 276 279 282 300 332 350 357 3 4 358 349 339 326 316 314 315 318 324 326 331 339 342 342 340 340 341 341 341 343 343 341 342 344 344 347 350 352 358
29 65 32 17 183 194 209 214 209 208 205 186 176 175 183 204 219 222 223 230 243 263 291 301 299 285 259 247 242 230 223 226 226 221 219 226 240 254 265 272 274 277 275 261 244 240 267 280 282 298 337 347 345 1 14 15 13 8 359 347 336 330 326 326 330 334 339 344 346 348 347 345 345 344 341 341 343 345 347 349 348 351 356 359 4
141 76 60 79 149 172 182 184 180 183 182 165 162 187 206 211 220 223 221 240 263 289 306 304 295 276 251 241 237 229 228 228 224 221 221 224 238 252 262 267 268 270 267 251 236 234 256 266 284 330 353 348 347 9 20 18 15 10 5 360 353 348 346 345 346 348 347 345 345 348 349 346 345 345 342 340 343 348 350 350 350 355 360 1 4
172 98 84 78 93 150 167 164 156 145 145 164 179 199 209 214 224 223 221 256 280 304 305 295 280 270 261 248 235 226 226 222 215 214 213 215 228 244 253 252 248 249 247 239 226 223 239 240 14 5 4 359 3 21 25 23 19 14 11 9 8 9 6 0 357 354 350 346 345 346 343 340 341 345 346 343 344 349 351 351 352 355 357 359 4
181 137 110 88 94 129 150 151 158 157 154 172 185 198 213 224 227 218 238 272 293 304 295 284 263 254 250 243 232 216 208 205 202 199 194 192 210 233 241 237 232 235 236 230 214 212 224 74 46 21 14 13 19 29 34 37 33 26 26 29 30 30 24 17 11 5 360 355 351 347 342 339 339 341 344 346 348 351 352 352 353 353 351 353 0
173 158 144 123 110 122 130 132 155 173 178 178 183 204 223 229 214 210 272 287 302 295 282 275 260 246 234 232 227 212 198 193 190 187 177 172 189 221 234 230 228 229 228 221 198 191 152 78 55 33 33 32 34 37 43 50 40 28 30 35 35 33 29 25 20 16 13 8 3 357 348 342 339 338 342 349 352 353 351 349 350 349 348 350 355
165 165 159 156 145 136 138 153 166 168 171 177 191 212 222 213 190 283 292 298 301 282 263 262 256 245 231 220 211 203 196 187 194 194 178 169 177 204 221 224 226 226 221 206 168 150 127 101 84 70 58 47 43 36 35 44 35 20 21 24 20 19 19 18 15 15 15 11 6 5 0 352 346 343 346 351 353 350 346 344 343 344 346 352 359
147 156 157 160 164 155 146 161 174 177 179 185 198 212 212 237 319 313 313 308 290 258 242 240 233 230 225 208 189 185 184 188 213 215 192 172 169 189 207 212 215 222 231 196 151 144 133 113 97 86 65 50 47 35 24 28 23 9 11 14 10 7 7 7 6 8 9 6 3 3 3 2 357 350 348 351 351 346 342 342 343 346 349 352 1
126 136 142 145 156 160 155 161 175 185 183 181 201 221 245 330 323 316 308 285 253 234 226 220 216 216 211 193 173 173 187 205 215 214 201 179 164 174 194 201 197 204 264 265 196 150 130 111 95 78 52 36 43 40 26 19 11 3 6 8 6 3 360 359 358 358 359 358 359 359 357 359 1 357 351 350 351 347 343 342 343 345 350 353 357
115 124 131 136 147 157 162 166 170 173 173 183 219 250 299 316 306 302 281 247 230 221 214 217 224 219 202 190 182 186 200 209 208 205 203 195 178 174 186 197 193 188 239 291 317 11 74 71 48 36 12 354 4 19 19 8 4 8 9 6 2 358 355 353 350 348 347 347 350 352 350 352 356 358 355 353 351 348 345 343 340 340 343 346 348
112 117 124 135 146 153 157 159 159 161 175 217 259 294 312 311 314 303 251 231 227 207 209 231 233 224 212 198 192 198 203 204 202 200 200 206 208 195 191 198 196 193 214 275 332 346 359 349 320 317 326 327 332 337 333 331 339 357 5 4 360 354 349 346 342 340 339 338 340 342 342 344 347 349 352 351 350 347 345 344 342 339 338 338 338
110 114 122 135 143 146 149 150 156 176 231 272 295 314 317 318 320 297 247 236 235 219 225 229 223 220 216 204 200 203 200 197 201 203 200 202 205 203 200 199 198 206 225 252 297 308 324 325 312 308 309 312 318 320 320 324 332 345 353 355 354 349 345 342 339 336 334 332 333 333 335 338 340 341 343 343 342 342 339 339 340 338 336 334 333
113 122 133 141 143 145 149 154 175 240 281 300 317 324 319 313 306 275 244 233 228 226 225 222 219 218 214 208 205 203 200 201 205 205 202 199 197 197 197 195 200 214 232 257 276 281 282 283 289 295 300 303 308 313 320 327 338 346 348 348 348 346 345 343 339 336 333 331 329 328 330 333 335 335 336 335 334 333 331 330 331 333 333 332 331
118 129 138 143 145 147 150 154 181 309 330 339 340 333 316 300 276 229 218 218 218 219 220 223 224 220 214 209 205 203 206 209 208 204 202 199 196 195 190 189 201 216 234 255 268 277 279 280 283 288 294 301 307 316 326 334 341 344 344 342 341 341 342 343 340 335 332 329 327 326 327 328 329 330 330 330 330 329 327 324 323 325 328 329 329
126 137 141 145 148 147 141 123 55 22 16 13 8 360 332 270 221 206 210 213 215 218 221 225 226 224 221 212 206 207 211 211 206 203 203 201 199 196 189 186 198 216 239 256 265 275 281 285 289 291 295 303 309 317 327 333 333 334 335 333 332 333 333 335 336 333 329 326 324 323 324 323 323 324 323 323 323 322 323 322 319 319 322 324 326
143 149 148 151 153 148 134 88 41 29 23 19 18 24 21 231 213 210 210 211 213 218 223 229 230 231 231 224 218 216 215 211 205 203 205 205 205 203 197 195 202 220 243 259 269 278 282 284 287 291 297 302 307 312 318 325 323 321 321 321 322 323 321 322 328 328 326 326 323 321 321 319 317 318 317 316 316 315 317 317 314 314 317 319 322
155 156 156 156 156 149 128 67 31 20 15 13 12 13 25 216 221 220 217 214 215 218 225 232 236 240 242 240 235 229 221 213 207 206 207 208 210 211 210 213 223 233 244 257 269 277 280 278 279 286 293 299 305 309 312 317 315 310 309 309 310 309 308 313 321 322 322 324 323 321 321 319 316 316 315 315 314 313 315 316 313 311 313 315 317
162 160 159 159 158 153 137 77 18 357 354 357 357 351 341 254 231 235 235 233 229 226 230 235 237 242 246 244 240 235 226 216 210 208 208 209 211 216 220 228 239 243 247 255 262 268 273 275 277 283 288 294 300 303 304 306 306 305 305 306 306 305 305 311 317 317 318 320 320 320 321 318 315 314 314 314 313 312 314 316 314 311 311 312 313
166 162 161 165 167 168 169 183 308 325 332 338 343 343 331 293 264 259 256 251 244 239 238 238 237 240 244 244 239 232 224 217 211 208 208 210 214 219 225 234 244 249 254 258 261 268 274 280 284 285 285 288 291 293 297 300 304 306 308 309 311 311 311 314 317 317 317 318 316 316 315 312 310 309 309 309 308 309 312 314 313 311 310 311 311
171 166 167 175 183 191 201 223 259 296 313 321 331 339 333 305 280 271 266 260 254 247 241 238 239 240 242 246 246 238 226 216 209 206 208 212 217 222 228 237 244 251 257 262 270 280 287 293 296 294 292 292 293 296 300 304 309 312 312 313 315 315 316 318 318 317 318 318 316 314 311 306 304 304 304 304 305 307 310 311 311 311 310 310 309
185 181 184 191 200 211 222 236 256 282 300 311 324 339 341 325 291 270 264 259 253 249 244 240 239 241 243 245 246 244 232 216 208 206 208 213 218 223 231 240 246 251 257 263 271 280 289 296 297 296 295 297 300 304 309 312 313 315 315 315 315 314 315 317 317 316 317 317 316 314 311 307 304 302 302 302 303 305 307 308 308 308 309 309 308
209 203 200 202 209 219 230 241 255 273 290 306 320 329 330 324 306 279 265 258 252 249 246 240 238 240 242 239 237 238 232 217 208 206 207 210 216 224 233 244 248 249 253 262 271 279 286 290 290 291 294 299 304 309 312 314 314 313 313 312 311 312 314 315 315 315 315 316 315 313 311 308 305 303 302 301 302 303 304 304 304 304 305 306 306
225 216 209 209 214 223 234 245 259 275 291 305 315 316 313 310 304 286 271 263 258 253 249 245 239 236 237 236 232 231 226 214 207 206 206 206 213 226 238 247 251 250 251 258 267 275 281 283 284 288 293 298 304 308 310 311 311 311 312 313 314 315 316 316 315 314 313 313 312 310 310 307 304 302 300 299 299 300 300 300 300 300 301 301 301
229 220 213 212 217 227 239 251 263 280 294 301 311 316 311 302 296 287 276 269 264 259 254 250 244 238 237 236 233 229 223 212 205 204 203 204 216 232 242 247 251 252 253 258 267 274 278 281 284 288 293 298 302 305 306 307 309 312 315 317 318 318 317 315 314 312 311 311 310 311 313 311 307 304 300 298 298 298 298 298 297 298 298 298 298
227 220 215 216 223 233 242 253 264 275 282 287 303 320 320 306 292 285 276 268 265 263 258 252 246 242 239 237 233 228 219 209 203 201 204 211 224 235 241 246 251 254 257 265 274 279 281 284 287 290 294 298 299 301 304 307 311 316 319 319 318 317 315 313 312 310 309 309 309 311 313 313 312 310 306 304 304 303 301 300 300 299 298 297 298
227 223 221 222 227 234 242 252 261 269 278 288 303 318 321 311 296 287 278 271 271 268 260 253 247 241 238 236 232 225 214 205 201 203 212 220 228 235 241 247 253 257 263 271 278 282 284 286 289 292 294 296 299 303 307 311 315 317 317 316 314 313 312 311 309 307 307 307 308 309 310 310 312 312 310 309 309 307 305 304 304 304 301 299 299
226 225 224 224 227 234 241 251 261 272 286 295 302 310 314 309 297 288 281 277 276 272 263 257 253 248 244 241 235 221 206 200 202 209 217 224 229 236 244 251 255 260 268 275 280 283 284 284 286 290 294 297 302 307 310 313 314 314 313 312 312 312 312 311 310 308 307 306 306 305 305 306 309 310 309 308 307 306 304 304 304 303 301 300 301
228 228 228 228 231 236 242 251 264 279 288 293 297 303 307 304 292 284 280 277 275 271 265 258 254 253 252 249 237 216 201 201 208 215 222 228 234 241 248 253 259 266 273 278 279 281 282 284 287 291 296 300 305 308 309 310 310 310 311 312 312 312 313 313 312 310 308 306 304 302 302 304 307 307 305 304 303 301 300 300 301 301 300 299 300
228 230 231 234 238 241 245 254 268 280 284 285 291 298 301 297 286 279 279 277 273 270 267 261 256 253 249 243 229 213 207 212 218 222 228 236 243 249 253 258 265 272 276 279 282 283 284 288 292 296 300 304 306 307 307 308 309 311 313 313 313 313 313 312 312 310 307 304 302 301 302 303 304 304 304 302 301 299 298 298 299 301 300 299 298
228 230 231 235 242 245 249 259 271 276 277 281 290 298 299 290 277 274 276 276 272 269 268 266 261 255 248 239 226 217 218 223 227 231 237 244 251 256 260 264 270 275 279 283 287 290 291 294 297 301 304 305 306 307 308 310 312 314 315 316 316 316 314 312 310 307 305 303 302 301 301 302 302 302 302 302 301 299 299 299 300 301 301 299 297
228 228 228 233 241 246 254 266 271 270 273 284 296 303 299 285 272 271 272 273 272 268 266 266 261 253 244 235 224 219 221 227 233 238 244 250 256 260 264 270 275 279 283 287 291 294 296 297 300 302 303 305 306 307 309 312 314 316 318 319 320 319 318 315 311 307 304 302 301 300 300 300 301 301 301 300 300 299 299 298 298 297 298 298 296
230 230 230 235 243 249 256 267 271 272 277 288 298 302 297 285 278 275 272 271 271 267 262 259 254 246 238 231 225 223 225 231 238 243 249 254 259 263 269 275 279 282 287 291 294 296 296 297 300 302 303 304 306 307 309 312 314 316 317 318 319 319 317 315 312 309 305 303 301 300 299 299 300 300 300 299 299 299 299 297 295 293 293 294 294
232 235 236 241 248 252 254 261 267 270 274 282 291 296 293 287 283 281 277 271 268 264 258 251 245 241 237 234 232 231 232 236 241 246 250 256 263 269 273 277 281 286 290 294 296 296 297 298 301 302 303 304 305 306 307 309 311 312 314 316 317 316 315 313 311 308 306 304 302 300 300 300 300 300 300 301 301 301 300 298 296 293 291 291 291
238 237 239 244 251 254 257 257 254 255 263 276 287 291 289 286 284 282 279 275 269 264 258 249 242 239 237 236 235 234 235 238 242 246 253 261 268 272 275 279 285 290 294 296 298 298 299 300 301 302 302 303 302 302 303 305 308 310 312 314 316 315 313 311 310 308 305 302 300 299 299 299 299 299 300 301 300 300 299 298 296 294 292 290 290
243 239 237 239 244 252 261 261 251 248 263 279 285 286 287 287 284 280 279 278 273 265 256 247 239 234 233 233 235 237 239 243 248 254 261 266 269 273 279 285 291 294 296 296 297 297 299 299 299 299 299 299 298 299 302 304 307 309 311 313 314 314 312 310 309 307 304 299 297 297 297 298 298 298 298 298 298 297 297 297 295 293 291 289 289
243 243 241 239 239 246 257 263 262 262 269 274 277 282 286 286 282 279 278 279 275 267 257 247 241 239 238 239 242 246 249 252 255 259 263 267 272 278 284 288 290 291 291 292 293 296 297 296 296 297 297 297 298 300 302 305 306 307 309 311 312 312 310 309 309 308 304 299 296 294 295 296 297 297 297 297 298 298 297 296 294 292 290 288 287
239 242 243 244 245 247 251 256 258 259 259 260 268 277 282 279 276 275 275 276 273 266 258 253 251 251 250 247 249 253 254 256 259 263 268 273 280 284 287 289 290 289 289 291 293 294 294 293 294 295 296 297 298 300 301 303 304 305 308 309 309 308 308 308 308 307 305 301 298 296 296 297 297 297 297 298 298 298 297 296 295 294 292 290 289
236 239 242 245 248 249 248 248 250 251 253 257 265 273 275 272 270 271 273 274 272 265 258 256 256 255 250 248 251 255 258 261 267 272 276 281 285 288 290 290 288 287 287 290 291 291 290 290 291 293 294 295 297 298 299 300 302 304 306 307 306 306 307 307 306 305 303 301 300 299 299 299 299 299 298 297 297 297 297 296 295 294 293 292 291
233 236 240 243 244 245 246 249 253 256 259 262 265 268 267 265 267 269 270 271 270 265 260 257 255 253 251 251 255 261 267 272 277 280 283 286 288 291 291 289 286 285 287 291 293 293 291 289 290 292 294 295 296 297 298 299 301 303 305 306 306 307 307 306 305 304 304 303 303 302 302 302 302 301 300 300 300 300 299 298 297 296 294 294 293
236 238 239 242 245 248 252 257 261 263 264 264 263 262 260 261 263 264 265 266 267 265 263 259 256 255 255 258 263 270 276 281 285 287 289 290 290 290 289 287 287 290 293 296 298 299 297 294 294 295 295 296 297 298 299 300 301 303 305 306 306 307 306 305 305 306 306 307 306 306 305 305 304 304 303 303 303 303 303 302 301 300 298 297 295
237 239 241 244 249 253 256 259 261 263 263 261 259 257 256 257 258 259 260 262 263 263 264 265 263 262 264 269 274 279 284 288 290 290 291 291 291 290 290 290 293 297 299 301 303 303 301 300 299 298 298 299 300 301 301 302 304 305 306 306 306 306 305 305 306 306 306 306 306 305 305 305 304 304 305 305 305 305 304 304 303 302 301 299 297
234 237 240 244 247 249 249 249 250 252 253 253 252 253 254 256 257 257 259 263 263 264 267 268 268 270 273 276 278 282 286 288 290 291 293 293 293 293 295 298 301 304 305 306 306 303 301 300 301 301 302 303 303 304 305 305 306 307 307 307 306 305 305 305 305 305 305 305 304 304 303 303 303 303 303 303 304 304 304 303 303 302 302 301 299
231 233 237 239 239 238 236 235 234 235 238 241 245 249 251 252 254 256 261 266 269 271 271 269 270 273 275 277 280 284 288 291 293 294 296 297 299 302 306 309 309 307 305 305 304 302 302 303 304 304 305 305 305 305 306 306 307 307 307 306 306 306 306 306 305 305 305 304 303 303 302 301 301 302 302 302 302 303 302 302 302 302 301 301 300
234 233 233 233 231 227 226 226 225 226 228 234 240 244 245 247 251 259 268 275 278 279 278 277 277 278 279 282 285 289 291 291 293 295 298 300 303 306 311 314 312 308 305 305 306 306 306 306 305 305 304 304 304 305 305 306 306 306 306 306 307 307 307 306 306 305 304 304 303 302 302 301 301 301 301 301 302 302 302 302 302 301 301 300 299
237 233 234 235 232 226 221 221 222 224 226 228 232 236 239 244 254 267 275 278 280 280 281 281 282 282 284 287 288 288 289 291 294 298 301 303 303 306 309 311 309 306 305 306 306 306 306 306 305 305 305 305 305 306 306 307 307 307 307 307 307 307 307 307 306 306 305 305 304 304 303 303 303 302 302 302 302 302 302 302 301 301 301 301 300
228 228 231 234 232 228 225 223 223 227 230 231 229 229 233 241 256 268 273 275 278 280 281 283 285 287 290 290 288 288 290 294 299 302 304 304 305 308 309 308 305 303 304 305 305 306 307 307 307 306 306 306 307 307 307 308 308 308 308 308 308 308 308 307 307 307 306 306 305 305 304 304 304 303 303 302 302 301 302 302 301 302 302 301 300
216 221 226 231 234 236 237 236 234 234 237 238 236 236 245 260 270 276 279 281 284 287 290 291 291 291 290 289 290 294 298 301 302 303 303 303 305 308 309 307 305 305 306 307 307 308 308 308 307 307 307 307 308 308 308 309 309 309 308 308 308 307 307 307 307 306 306 305 305 304 303 303 302 302 301 301 301 301 301 301 301 301 301 300 300
207 208 216 224 233 240 245 246 242 241 244 248 251 260 271 279 283 284 285 286 289 292 293 293 291 291 292 295 298 302 304 305 306 306 305 304 305 308 308 308 308 309 309 309 309 310 309 309 308 308 308 308 309 309 309 309 308 308 308 307 307 307 307 306 306 305 305 305 304 304 303 303 302 302 302 302 302 302 302 302 302 302 302 301 301
210 208 214 224 232 238 244 247 245 246 252 260 267 275 280 282 283 283 284 287 290 293 293 293 293 297 301 305 305 305 305 306 307 308 307 307 307 308 309 310 310 310 310 310 310 310 309 309 309 309 310 310 310 309 309 308 308 307 307 307 307 307 307 307 306 306 306 306 306 305 305 305 305 304 305 305 304 304 304 305 305 305 304 304 303
214 216 227 239 241 240 243 245 245 249 258 267 272 276 276 275 276 281 285 288 291 292 295 299 304 309 311 310 309 308 307 307 307 308 308 309 309 310 310 310 310 310 310 310 311 310 310 311 311 311 311 310 309 308 308 308 308 309 309 309 309 309 309 309 308 308 308 308 308 308 308 307 307 307 307 307 307 307 307 307 307 306 306 305 305
Height
3135 3141 3145 3145 3145 3145 3145 3149 3152 3154 3155 3157 3159 3159 3161 3164 3165 3166 3167 3166 3166 3166 3167 3167 3166 3166 3166 3166 3166 3167 3167 3168 3168 3169 3169 3170 3170 3171 3171 3172 3172 3173 3173 3173 3173 3173 3173 3173 3173 3172 3172 3171 3170 3170 3169 3169 3168 3167 3167 3166 3165 3164 3163 3163 3162 3162 3161 3161 3160 3159 3159 3158 3158 3157 3156 3155 3154 3154 3153 3153 3152 3151 3150 3149 3148
3143 3142 3141 3142 3142 3141 3143 3147 3150 3153 3155 3157 3159 3160 3161 3163 3164 3165 3165 3165 3165 3165 3165 3165 3165 3165 3165 3165 3165 3166 3167 3167 3167 3168 3168 3169 3169 3170 3170 3171 3172 3172 3173 3173 3173 3173 3172 3172 3172 3172 3171 3170 3169 3169 3168 3168 3167 3167 3166 3166 3165 3164 3163 3163 3162 3161 3161 3160 3159 3159 3158 3157 3157 3156 3155 3155 3154 3154 3153 3152 3151 3150 3149 3148 3148
3143 3142 3140 3140 3139 3140 3143 3146 3149 3153 3154 3156 3158 3160 3161 3162 3162 3163 3163 3163 3163 3164 3164 3163 3163 3164 3164 3164 3164 3165 3166 3166 3167 3167 3167 3168 3169 3169 3169 3170 3171 3171 3172 3172 3172 3172 3172 3171 3171 3171 3170 3170 3169 3168 3168 3167 3167 3166 3166 3165 3164 3164 3163 3162 3161 3161 3160 3159 3158 3158 3157 3156 3156 3155 3154 3154 3154 3153 3152 3152 3151 3150 3149 3148 3147
3143 3142 3140 3139 3139 3141 3144 3148 3151 3153 3155 3156 3158 3159 3160 3161 3161 3162 3162 3162 3162 3162 3162 3162 3162 3163 3163 3163 3164 3164 3165 3165 3166 3166 3167 3168 3168 3168 3169 3170 3170 3171 3171 3171 3171 3171 3171 3171 3171 3170 3170 3169 3168 3168 3167 3167 3166 3166 3165 3165 3164 3163 3162 3162 3161 3160 3159 3158 3158 3157 3157 3156 3155 3155 3154 3153 3153 3152 3152 3151 3150 3149 3148 3147 3146
3142 3142 3141 3140 3139 3142 3146 3149 3151 3153 3155 3156 3158 3159 3159 3160 3160 3160 3160 3161 3161 3161 3161 3162 3162 3162 3162 3162 3163 3163 3164 3165 3165 3166 3167 3167 3168 3168 3168 3169 3170 3170 3170 3171 3171 3170 3171 3171 3171 3170 3169 3169 3168 3167 3167 3166 3166 3165 3165 3164 3164 3163 3162 3161 3160 3159 3159 3158 3157 3157 3156 3155 3155 3154 3153 3152 3152 3152 3151 3150 3149 3148 3147 3147 3146
3142 3142 3143 3142 3141 3144 3147 3150 3151 3153 3155 3156 3157 3158 3158 3159 3159 3159 3159 3160 3160 3160 3160 3161 3161 3161 3161 3162 3162 3163 3164 3164 3165 3166 3166 3167 3167 3167 3168 3169 3169 3169 3170 3170 3170 3170 3170 3170 3170 3170 3169 3169 3168 3167 3167 3166 3166 3165 3165 3164 3164 3163 3162 3161 3160 3159 3158 3157 3157 3156 3155 3155 3154 3153 3153 3152 3152 3151 3150 3150 3149 3148 3147 3146 3146
3142 3143 3145 3145 3145 3146 3149 3150 3152 3153 3154 3155 3156 3157 3158 3158 3158 3158 3159 3159 3159 3159 3159 3160 3160 3160 3161 3161 3162 3162 3163 3164 3165 3165 3166 3167 3167 3167 3168 3168 3169 3169 3169 3169 3169 3170 3170 3170 3170 3170 3169 3169 3168 3168 3167 3167 3166 3165 3165 3164 3163 3162 3162 3161 3159 3159 3158 3157 3156 3156 3155 3154 3154 3153 3152 3152 3151 3151 3150 3149 3149 3148 3147 3146 3145
3142 3144 3145 3147 3148 3149 3150 3151 3152 3153 3154 3155 3156 3157 3157 3157 3157 3158 3158 3158 3158 3158 3159 3159 3159 3160 3160 3161 3161 3162 3162 3163 3164 3165 3166 3166 3167 3167 3168 3168 3169 3169 3169 3169 3169 3170 3170 3170 3170 3170 3169 3169 3168 3168 3167 3166 3166 3165 3165 3164 3163 3162 3161 3160 3159 3158 3158 3157 3156 3155 3155 3154 3153 3153 3152 3151 3151 3150 3150 3149 3149 3148 3147 3146 3145
3141 3143 3145 3147 3149 3150 3151 3151 3152 3153 3154 3155 3156 3157 3156 3156 3156 3156 3156 3157 3157 3158 3158 3159 3159 3159 3159 3160 3160 3161 3162 3163 3164 3164 3165 3166 3167 3167 3168 3168 3168 3168 3168 3169 3169 3170 3170 3170 3170 3170 3169 3169 3168 3168 3167 3166 3166 3165 3164 3163 3163 3162 3161 3160 3159 3158 3158 3157 3156 3155 3155 3154 3153 3152 3152 3151 3151 3150 3150 3149 3148 3147 3146 3145 3145
3142 3144 3145 3147 3149 3150 3151 3151 3152 3153 3154 3155 3156 3156 3155 3155 3156 3155 3156 3156 3157 3157 3158 3158 3158 3158 3159 3159 3160 3161 3162 3163 3164 3164 3165 3166 3167 3167 3168 3168 3168 3168 3168 3169 3169 3169 3169 3169 3169 3169 3169 3169 3168 3168 3167 3166 3166 3165 3164 3163 3162 3161 3160 3160 3159 3158 3158 3157 3156 3156 3155 3154 3154 3153 3152 3151 3151 3150 3149 3149 3148 3147 3146 3145 3144
3144 3145 3147 3148 3148 3149 3150 3151 3152 3153 3154 3155 3155 3155 3155 3155 3156 3155 3156 3156 3157 3157 3157 3157 3158 3158 3158 3159 3160 3161 3162 3163 3163 3164 3164 3165 3166 3167 3167 3168 3168 3168 3168 3169 3169 3169 3169 3169 3169 3169 3169 3169 3168 3167 3167 3167 3166 3165 3164 3163 3162 3161 3160 3160 3159 3158 3158 3157 3157 3156 3155 3155 3154 3153 3152 3151 3150 3150 3149 3148 3147 3147 3146 3145 3144
3145 3146 3147 3148 3149 3150 3150 3151 3152 3153 3154 3154 3155 3155 3155 3155 3155 3155 3155 3156 3156 3157 3157 3157 3157 3158 3158 3159 3160 3161 3162 3163 3163 3164 3164 3164 3165 3166 3167 3168 3168 3168 3169 3169 3169 3169 3169 3169 3169 3169 3168 3168 3168 3167 3167 3166 3166 3165 3164 3163 3162 3161 3161 3160 3159 3159 3158 3157 3156 3156 3155 3154 3153 3153 3152 3151 3150 3149 3149 3148 3147 3146 3145 3144 3143
3147 3147 3148 3149 3149 3150 3151 3152 3153 3153 3154 3154 3154 3153 3153 3153 3154 3154 3155 3155 3156 3156 3157 3157 3158 3158 3159 3159 3160 3161 3162 3162 3163 3163 3164 3164 3165 3166 3167 3167 3168 3168 3168 3169 3169 3169 3169 3169 3169 3168 3168 3168 3167 3167 3166 3166 3165 3164 3163 3163 3162 3162 3161 3160 3160 3159 3158 3157 3156 3155 3154 3154 3153 3152 3151 3151 3150 3149 3148 3147 3146 3145 3144 3143 3142
3148 3148 3149 3150 3150 3151 3152 3152 3153 3153 3154 3153 3153 3152 3152 3152 3153 3154 3154 3155 3156 3157 3157 3158 3158 3159 3159 3159 3160 3160 3161 3162 3163 3163 3164 3164 3165 3166 3166 3167 3167 3168 3168 3168 3169 3169 3169 3169 3168 3168 3168 3167 3167 3167 3166 3165 3164 3163 3162 3162 3161 3161 3160 3160 3159 3158 3157 3156 3155 3154 3153 3153 3152 3151 3151 3150 3149 3148 3147 3146 3145 3144 3143 3142 3141
3149 3149 3150 3150 3151 3152 3152 3153 3153 3154 3153 3152 3152 3152 3152 3152 3153 3154 3155 3156 3156 3157 3157 3158 3158 3158 3159 3159 3159 3160 3161 3162 3162 3163 3164 3165 3165 3166 3166 3167 3167 3168 3168 3168 3168 3169 3168 3168 3168 3168 3167 3167 3167 3166 3166 3165 3164 3163 3162 3161 3161 3160 3159 3158 3157 3156 3156 3155 3154 3153 3152 3152 3151 3150 3149 3149 3148 3147 3146 3145 3144 3143 3142 3141 3140
3149 3150 3150 3151 3152 3152 3153 3154 3154 3153 3152 3152 3152 3152 3152 3153 3153 3154 3155 3156 3157 3157 3157 3158 3158 3158 3158 3159 3159 3160 3160 3161 3162 3163 3164 3164 3165 3166 3166 3167 3167 3167 3167 3168 3168 3168 3168 3168 3168 3168 3167 3167 3166 3165 3165 3164 3163 3162 3162 3161 3160 3159 3158 3157 3156 3155 3154 3154 3153 3152 3151 3150 3149 3149 3148 3147 3146 3146 3145 3144 3143 3141 3141 3140 3139
3150 3150 3151 3151 3152 3153 3153 3153 3153 3152 3152 3152 3153 3153 3153 3153 3154 3155 3155 3156 3156 3157 3157 3157 3157 3158 3158 3158 3158 3159 3160 3161 3162 3163 3164 3164 3165 3166 3166 3166 3167 3167 3167 3167 3167 3167 3167 3167 3167 3167 3167 3166 3165 3165 3164 3163 3162 3161 3161 3160 3159 3158 3157 3155 3154 3154 3153 3152 3151 3150 3150 3149 3148 3147 3146 3146 3145 3144 3144 3143 3142 3140 3139 3138 3137
3151 3151 3151 3152 3152 3153 3153 3153 3152 3153 3153 3153 3153 3153 3154 3154 3154 3154 3155 3155 3156 3156 3156 3156 3157 3157 3157 3158 3158 3159 3159 3160 3162 3163 3163 3164 3165 3165 3166 3166 3166 3166 3166 3167 3167 3167 3167 3167 3167 3166 3166 3165 3164 3164 3163 3162 3161 3160 3159 3159 3158 3157 3156 3155 3154 3153 3151 3151 3150 3149 3148 3147 3146 3145 3144 3143 3143 3142 3141 3141 3140 3139 3138 3136 3135
3151 3151 3151 3151 3152 3152 3152 3152 3153 3153 3153 3154 3154 3154 3154 3154 3154 3154 3154 3155 3155 3156 3156 3156 3156 3156 3157 3157 3158 3158 3159 3160 3161 3162 3163 3164 3164 3165 3165 3165 3165 3166 3166 3166 3166 3166 3166 3166 3166 3166 3165 3164 3164 3163 3162 3161 3160 3159 3159 3158 3157 3157 3155 3154 3153 3152 3151 3150 3149 3148 3147 3145 3144 3143 3142 3141 3140 3139 3139 3139 3138 3137 3136 3135 3133
3151 3150 3151 3151 3151 3152 3152 3153 3153 3153 3153 3153 3153 3153 3153 3153 3154 3154 3154 3154 3155 3155 3155 3156 3156 3156 3156 3157 3157 3158 3158 3159 3160 3161 3162 3163 3163 3163 3164 3164 3165 3165 3165 3165 3166 3166 3166 3166 3166 3165 3164 3164 3163 3162 3161 3160 3159 3159 3158 3157 3156 3156 3155 3154 3153 3151 3150 3150 3149 3147 3146 3145 3143 3142 3141 3140 3138 3137 3136 3136 3136 3135 3134 3133 3131
3150 3150 3150 3151 3152 3152 3152 3153 3153 3153 3153 3153 3153 3153 3153 3153 3153 3153 3154 3154 3154 3154 3155 3155 3156 3156 3156 3156 3156 3157 3158 3158 3159 3160 3161 3161 3162 3162 3163 3163 3164 3164 3165 3165 3165 3165 3165 3165 3165 3164 3163 3163 3162 3161 3160 3159 3159 3158 3157 3156 3155 3154 3153 3152 3151 3150 3149 3148 3147 3146 3145 3144 3142 3141 3139 3138 3136 3135 3134 3133 3133 3132 3131 3130 3129
3150 3150 3150 3151 3152 3152 3152 3153 3153 3153 3153 3153 3152 3152 3152 3152 3153 3153 3153 3153 3154 3154 3154 3154 3155 3155 3155 3156 3156 3156 3157 3157 3158 3159 3159 3160 3160 3161 3162 3162 3163 3164 3164 3164 3164 3164 3164 3164 3163 3162 3162 3161 3160 3160 3159 3158 3157 3156 3155 3154 3152 3151 3150 3149 3148 3147 3146 3146 3145 3144 3143 3142 3141 3139 3138 3136 3134 3133 3132 3130 3130 3129 3128 3127 3126
3149 3150 3150 3151 3151 3152 3152 3152 3153 3153 3153 3152 3152 3152 3152 3152 3152 3152 3152 3153 3153 3153 3153 3153 3154 3154 3154 3154 3155 3155 3156 3156 3157 3158 3158 3159 3160 3160 3161 3162 3162 3163 3163 3163 3163 3163 3162 3162 3161 3160 3160 3159 3159 3158 3157 3156 3155 3154 3153 3151 3150 3149 3147 3146 3146 3145 3144 3143 3142 3141 3140 3139 3138 3137 3136 3134 3132 3131 3129 3128 3126 3125 3125 3124 3123
3149 3149 3149 3150 3151 3151 3152 3152 3152 3152 3152 3152 3152 3152 3152 3151 3151 3151 3151 3151 3151 3151 3151 3152 3152 3152 3153 3153 3153 3154 3154 3155 3156 3157 3157 3158 3159 3160 3160 3161 3161 3161 3162 3162 3161 3161 3161 3160 3159 3159 3158 3158 3157 3156 3155 3154 3153 3152 3150 3149 3148 3146 3145 3144 3143 3142 3141 3140 3139 3138 3137 3136 3135 3133 3132 3131 3130 3128 3127 3125 3123 3122 3121 3120 3119
3148 3148 3149 3149 3150 3150 3151 3151 3151 3151 3152 3152 3151 3151 3150 3150 3149 3149 3149 3149 3150 3150 3150 3150 3150 3151 3151 3151 3152 3152 3153 3154 3155 3155 3156 3157 3158 3159 3159 3159 3160 3160 3161 3160 3160 3160 3159 3159 3158 3157 3157 3156 3155 3154 3153 3152 3151 3150 3148 3147 3146 3144 3143 3142 3140 3139 3138 3137 3136 3135 3134 3133 3131 3130 3128 3127 3126 3125 3123 3122 3120 3119 3117 3116 3115
3147 3148 3148 3149 3149 3149 3150 3150 3151 3151 3151 3151 3151 3150 3149 3148 3147 3147 3147 3147 3148 3148 3148 3149 3149 3149 3149 3150 3150 3151 3151 3152 3153 3154 3155 3156 3157 3157 3158 3158 3158 3159 3159 3159 3159 3158 3158 3157 3156 3156 3155 3154 3153 3152 3151 3150 3149 3148 3147 3145 3143 3142 3140 3139 3137 3136 3134 3133 3132 3131 3130 3129 3127 3126 3125 3123 3122 3121 3119 3117 3117 3115 3113 3111 3111
3146 3147 3147 3148 3148 3149 3149 3150 3150 3150 3150 3150 3150 3149 3148 3147 3146 3146 3146 3146 3146 3147 3147 3147 3147 3148 3148 3148 3149 3149 3150 3151 3152 3153 3154 3155 3155 3156 3156 3157 3157 3157 3157 3157 3157 3156 3156 3155 3155 3154 3153 3152 3151 3150 3149 3148 3147 3146 3144 3143 3141 3139 3137 3135 3134 3132 3131 3129 3128 3128 3127 3126 3124 3123 3122 3120 3119 3118 3115 3114 3113 3112 3110 3108 3106
3146 3146 3147 3147 3148 3148 3149 3149 3149 3149 3149 3149 3148 3148 3147 3146 3145 3145 3145 3145 3145 3145 3146 3146 3146 3146 3146 3147 3147 3148 3149 3150 3151 3152 3152 3153 3154 3154 3155 3155 3155 3155 3155 3155 3155 3154 3154 3153 3153 3152 3151 3150 3149 3148 3147 3146 3145 3143 3142 3140 3138 3136 3134 3132 3130 3128 3127 3126 3125 3124 3123 3122 3121 3120 3118 3117 3116 3114 3112 3110 3109 3108 3106 3104 3103
3145 3145 3146 3146 3147 3148 3148 3148 3148 3148 3148 3147 3147 3146 3146 3145 3144 3144 3144 3144 3144 3144 3144 3144 3144 3145 3145 3146 3146 3147 3148 3149 3150 3150 3151 3152 3153 3153 3153 3153 3153 3153 3153 3153 3153 3153 3152 3151 3151 3150 3149 3148 3147 3146 3145 3143 3142 3141 3139 3137 3135 3133 3131 3129 3127 3125 3124 3122 3121 3120 3120 3118 3117 3116 3114 3113 3112 3110 3108 3107 3105 3104 3102 3100 3099
3144 3145 3145 3146 3146 3147 3147 3147 3147 3147 3147 3146 3146 3145 3144 3144 3143 3143 3143 3143 3143 3143 3143 3143 3143 3144 3144 3145 3146 3147 3147 3148 3148 3149 3150 3151 3151 3151 3152 3152 3152 3151 3151 3151 3151 3151 3150 3149 3149 3148 3147 3146 3144 3143 3142 3140 3139 3137 3136 3134 3132 3130 3128 3126 3124 3122 3121 3119 3118 3117 3116 3114 3113 3112 3110 3109 3108 3107 3105 3103 3101 3100 3098 3096 3095
3143 3144 3145 3145 3146 3146 3146 3146 3145 3145 3145 3145 3144 3144 3143 3142 3142 3142 3142 3142 3142 3142 3142 3142 3142 3143 3143 3144 3145 3146 3147 3147 3148 3149 3149 3150 3150 3150 3150 3150 3150 3149 3149 3149 3149 3148 3148 3147 3146 3145 3144 3143 3141 3140 3138 3137 3135 3134 3132 3131 3129 3127 3125 3123 3121 3120 3118 3116 3115 3113 3112 3110 3109 3108 3106 3105 3104 3103 3101 3099 3097 3096 3094 3092 3091
3142 3143 3144 3144 3145 3145 3145 3145 3144 3144 3144 3144 3143 3142 3142 3141 3141 3141 3141 3141 3141 3141 3141 3141 3142 3142 3143 3143 3144 3145 3146 3146 3147 3147 3148 3148 3148 3148 3148 3148 3148 3148 3147 3147 3146 3146 3145 3144 3143 3142 3141 3139 3138 3136 3135 3133 3132 3130 3129 3127 3126 3124 3122 3120 3118 3117 3115 3113 3111 3109 3108 3106 3104 3103 3102 3100 3099 3098 3097 3096 3094 3092 3090 3089 3087
3141 3142 3142 3143 3143 3144 3144 3144 3144 3143 3143 3142 3142 3142 3141 3141 3140 3140 3141 3140 3140 3140 3140 3141 3141 3141 3142 3142 3143 3144 3144 3145 3145 3146 3146 3146 3146 3146 3146 3146 3146 3145 3145 3144 3144 3143 3142 3141 3140 3139 3138 3136 3135 3133 3132 3130 3129 3127 3125 3123 3122 3120 3118 3116 3114 3113 3111 3109 3107 3105 3103 3102 3100 3099 3097 3096 3094 3093 3092 3091 3090 3088 3086 3085 3084
3139 3140 3141 3142 3142 3143 3143 3143 3143 3142 3142 3142 3141 3141 3140 3140 3140 3139 3140 3140 3140 3140 3140 3140 3140 3140 3141 3141 3142 3143 3143 3144 3144 3144 3144 3144 3144 3144 3144 3144 3144 3143 3142 3142 3141 3140 3139 3138 3137 3136 3134 3133 3131 3130 3128 3127 3125 3123 3122 3120 3118 3116 3114 3111 3110 3108 3106 3104 3102 3100 3098 3097 3095 3094 3092 3091 3090 3089 3088 3086 3085 3083 3082 3081 3080
3138 3139 3139 3140 3141 3141 3142 3142 3142 3141 3140 3140 3140 3140 3139 3139 3139 3139 3138 3139 3139 3139 3139 3140 3140 3140 3140 3141 3141 3142 3142 3142 3142 3142 3142 3142 3142 3142 3142 3142 3141 3140 3140 3139 3138 3137 3136 3135 3134 3132 3131 3129 3128 3126 3125 3123 3121 3119 3117 3115 3113 3111 3109 3107 3105 3103 3101 3099 3097 3095 3093 3092 3090 3089 3087 3086 3085 3083 3082 3082 3081 3079 3078 3077 3076
3137 3137 3138 3139 3140 3140 3140 3141 3141 3140 3139 3139 3139 3139 3139 3138 3138 3138 3138 3138 3138 3138 3139 3139 3139 3139 3140 3140 3140 3140 3140 3141 3141 3141 3140 3140 3140 3140 3140 3139 3139 3138 3137 3136 3135 3134 3133 3131 3130 3129 3127 3126 3125 3123 3121 3119 3117 3115 3113 3111 3108 3106 3104 3102 3100 3098 3096 3094 3092 3091 3089 3087 3086 3084 3082 3081 3080 3079 3078 3077 3076 3075 3074 3072 3071
3135 3136 3137 3137 3138 3139 3139 3139 3140 3139 3139 3138 3137 3137 3137 3137 3137 3137 3137 3137 3137 3138 3138 3138 3138 3139 3139 3139 3139 3139 3139 3139 3139 3139 3139 3139 3138 3138 3137 3137 3136 3135 3135 3133 3132 3131 3129 3128 3126 3125 3124 3122 3121 3119 3117 3115 3113 3111 3109 3107 3104 3102 3099 3097 3095 3093 3091 3089 3088 3086 3085 3083 3082 3080 3078 3076 3075 3074 3073 3072 3071 3070 3069 3068 3066
3134 3135 3135 3136 3136 3137 3137 3137 3138 3138 3137 3137 3136 3136 3136 3136 3135 3135 3135 3136 3136 3136 3137 3137 3137 3137 3138 3138 3137 3137 3137 3137 3137 3137 3137 3137 3136 3135 3135 3134 3133 3133 3131 3130 3129 3128 3126 3125 3123 3122 3120 3118 3117 3115 3113 3111 3109 3107 3104 3102 3100 3098 3095 3092 3090 3088 3086 3084 3083 3081 3080 3079 3077 3075 3073 3071 3070 3069 3068 3067 3066 3065 3063 3063 3061
3132 3133 3133 3133 3134 3134 3135 3135 3135 3135 3135 3135 3135 3134 3134 3134 3134 3134 3134 3134 3135 3135 3135 3135 3136 3136 3136 3136 3136 3135 3135 3135 3136 3135 3135 3134 3134 3133 3132 3131 3130 3129 3128 3127 3125 3124 3123 3121 3119 3118 3116 3115 3113 3111 3109 3106 3104 3102 3100 3098 3095 3093 3090 3088 3086 3084 3082 3080 3078 3077 3075 3073 3072 3070 3069 3067 3066 3064 3063 3062 3061 3060 3058 3058 3057
3130 3130 3131 3131 3132 3132 3133 3133 3133 3133 3133 3133 3133 3133 3133 3133 3133 3133 3133 3133 3133 3134 3134 3134 3134 3134 3134 3134 3134 3134 3133 3133 3133 3133 3133 3132 3131 3130 3129 3128 3127 3125 3124 3123 3122 3121 3119 3117 3115 3114 3112 3110 3108 3106 3104 3102 3099 3097 3094 3092 3090 3087 3085 3083 3080 3079 3077 3075 3074 3072 3070 3068 3067 3065 3064 3062 3061 3059 3058 3057 3056 3055 3054 3053 3052
3128 3128 3129 3129 3130 3130 3130 3131 3131 3131 3130 3130 3130 3131 3131 3131 3131 3132 3132 3132 3132 3132 3132 3132 3132 3133 3133 3132 3132 3132 3131 3131 3131 3131 3130 3130 3129 3127 3126 3125 3123 3122 3121 3120 3118 3117 3115 3113 3112 3110 3108 3106 3104 3101 3099 3096 3094 3091 3089 3086 3084 3082 3079 3077 3076 3074 3072 3070 3068 3066 3065 3063 3061 3060 3059 3057 3056 3055 3053 3052 3051 3050 3049 3048 3047
3126 3126 3127 3127 3128 3128 3128 3128 3128 3128 3128 3128 3129 3129 3129 3130 3130 3130 3131 3131 3131 3131 3131 3131 3131 3131 3131 3131 3130 3130 3130 3130 3129 3129 3128 3127 3126 3125 3124 3122 3121 3120 3118 3116 3114 3112 3110 3108 3107 3105 3103 3101 3098 3096 3094 3091 3088 3086 3083 3081 3079 3077 3075 3073 3071 3070 3068 3066 3064 3062 3060 3058 3056 3055 3054 3052 3051 3050 3049 3047 3046 3045 3044 3044 3043
3124 3124 3125 3125 3126 3126 3126 3126 3126 3126 3127 3127 3127 3128 3128 3128 3129 3129 3129 3129 3129 3129 3129 3129 3129 3129 3129 3129 3129 3128 3128 3127 3127 3126 3125 3124 3122 3121 3120 3119 3118 3116 3114 3112 3110 3109 3106 3104 3102 3100 3097 3095 3093 3090 3088 3085 3083 3080 3078 3076 3074 3072 3070 3069 3067 3065 3064 3062 3060 3058 3056 3054 3052 3050 3049 3048 3047 3045 3044 3043 3042 3041 3040 3039 3038
3123 3124 3124 3124 3125 3125 3125 3125 3125 3125 3125 3126 3126 3127 3127 3127 3128 3128 3128 3128 3128 3128 3128 3128 3128 3128 3128 3127 3127 3126 3125 3124 3124 3123 3122 3120 3118 3116 3115 3115 3114 3112 3110 3108 3106 3104 3102 3100 3097 3095 3092 3090 3088 3085 3083 3080 3078 3076 3074 3072 3070 3068 3066 3064 3063 3061 3060 3058 3056 3054 3052 3050 3048 3047 3045 3044 3042 3041 3040 3039 3038 3036 3035 3034 3033
3122 3123 3123 3123 3124 3124 3124 3124 3124 3124 3124 3125 3125 3126 3126 3126 3127 3127 3127 3127 3127 3126 3126 3126 3126 3126 3126 3125 3124 3123 3122 3121 3120 3119 3118 3117 3115 3112 3111 3110 3109 3107 3105 3103 3101 3099 3097 3095 3092 3090 3087 3085 3083 3080 3078 3076 3074 3072 3069 3067 3065 3064 3062 3060 3059 3057 3055 3053 3052 3050 3048 3046 3044 3043 3041 3039 3038 3037 3035 3034 3033 3032 3031 3030 3029
3122 3122 3123 3123 3123 3123 3123 3123 3123 3124 3124 3124 3125 3125 3125 3125 3126 3126 3126 3125 3125 3125 3125 3125 3124 3124 3123 3123 3122 3121 3120 3118 3117 3116 3115 3113 3112 3110 3108 3106 3105 3103 3101 3099 3096 3094 3092 3090 3087 3085 3083 3080 3078 3076 3074 3072 3069 3067 3065 3063 3061 3059 3058 3056 3054 3052 3051 3049 3047 3045 3043 3042 3040 3038 3037 3035 3034 3032 3031 3030 3028 3027 3026 3025 3024
3121 3121 3122 3122 3122 3122 3122 3122 3122 3123 3123 3123 3124 3124 3124 3124 3124 3124 3124 3124 3124 3123 3123 3122 3122 3121 3121 3120 3119 3118 3116 3116 3114 3113 3111 3109 3107 3106 3104 3102 3100 3099 3096 3094 3092 3090 3087 3085 3083 3080 3078 3076 3073 3071 3069 3067 3065 3063 3061 3059 3057 3055 3053 3052 3050 3048 3046 3044 3043 3041 3039 3037 3035 3034 3032 3031 3029 3028 3026 3025 3024 3023 3022 3021 3020
3120 3120 3120 3121 3121 3121 3121 3121 3121 3122 3122 3122 3123 3123 3123 3123 3123 3123 3123 3122 3122 3121 3121 3120 3119 3119 3118 3117 3115 3114 3113 3112 3111 3109 3107 3105 3103 3102 3100 3098 3097 3094 3092 3090 3088 3085 3083 3081 3078 3076 3074 3072 3069 3067 3065 3063 3061 3059 3057 3055 3053 3051 3049 3047 3045 3043 3042 3040 3038 3036 3034 3033 3031 3029 3028 3026 3025 3023 3022 3021 3020 3019 3017 3016 3015
3119 3119 3120 3120 3120 3120 3120 3120 3121 3121 3121 3122 3122 3122 3122 3121 3121 3121 3121 3120 3120 3119 3119 3118 3117 3116 3115 3114 3112 3110 3109 3108 3107 3105 3103 3102 3100 3098 3096 3094 3092 3090 3088 3085 3083 3081 3078 3076 3074 3072 3070 3067 3065 3063 3061 3059 3057 3055 3053 3051 3049 3047 3045 3043 3041 3039 3037 3036 3034 3032 3030 3028 3026 3025 3023 3022 3020 3019 3017 3016 3015 3014 3013 3012 3011
3118 3118 3119 3119 3119 3119 3120 3120 3120 3120 3121 3121 3121 3120 3120 3120 3120 3120 3119 3118 3118 3117 3116 3115 3114 3113 3112 3111 3109 3107 3105 3104 3103 3102 3100 3098 3096 3094 3092 3090 3088 3085 3083 3081 3078 3076 3074 3072 3070 3068 3066 3063 3061 3059 3057 3055 3053 3051 3049 3047 3045 3043 3041 3039 3037 3034 3033 3031 3029 3028 3026 3024 3022 3020 3019 3017 3016 3014 3013 3012 3010 3010 3009 3008 3007
3117 3118 3118 3118 3118 3119 3119 3119 3119 3119 3120 3119 3119 3119 3119 3118 3118 3118 3117 3117 3116 3115 3113 3111 3111 3111 3110 3108 3106 3104 3102 3100 3099 3097 3096 3094 3092 3090 3088 3085 3083 3081 3078 3076 3074 3072 3070 3068 3066 3064 3061 3059 3057 3055 3053 3051 3049 3047 3044 3042 3040 3038 3036 3034 3032 3030 3028 3027 3025 3024 3022 3020 3018 3016 3015 3013 3011 3010 3009 3007 3006 3005 3004 3003 3002